BREEZE-M R/B, 55842

Orbit data source: Space-Track

BREEZE-M R/B, 55842 is space debris in GEO originally from a launch on Sun, 12 Mar 2023 UTC launched from the Tyuratam Missile And Space Complex (TTMTR). Debris objects in space refer to the collection of defunct objects orbiting the Earth. Examples of debris include non-operational satellites, rocket bodies, and fragments generated from explosions, collisions, or faulty payload assembly.

Not visible in the next 10 days
Identifier
55842, 2023-031B
Orbit
GEO
Last TLE update
17 hours ago
Origin
Manufacturer
Khrunichev
Mission
Spacecraft
Bus & Motor
BRIZ, Unknown motor
Mass
~1,600 kg wet, 1,600 kg dry
Launch date (UTC)
2023-03-12 (2 years ago)
Launch vehicle
Unknown
Launch site
Tyuratam Missile And Space Complex (TTMTR)
Object type
Payload
Rocket body
Debris
Shape & HBR
Cyl, 4 m
Radar Cross Section
4.000 m²

Expand to show TLE details & history

TLE from 17 hours ago
0 BREEZE-M R/B
1 55842U 23031B   25191.41415894 -.00000137  00000-0  00000-0 0  9999
2 55842   1.9372  83.4920 0068535   2.0512 357.3863  0.98963490  8394
Epoch: 2025-07-10T09:56Z
TLE epoch observation values (Epoch: 2025-07-10T09:56:23.332Z)
Latitude
Longitude
5.21689°
Altitude
35,864.525 km
Speed
3.082 km/s
True Right ascension
05h 31m 34s
True Declination
0° 00' 00"
Sunlit
Object was in daylight at epoch
Visualization orbit readout
Latitude
-1.86957°
Longitude
-102.20089°
Altitude
36,256.781 km
Speed
3.054 km/s
Apparent Right ascension
22h 46m 19s
Apparent Declination
-7° 02' 13"
Sunlit
Object is in daylight
Visualization observer readout
Local Sidereal Time
15:16:48
Azimuth
80.809° E
Elevation
-21.618°
Doppler factor
1
Orbital elements
Apogee altitude
36,449.976 km
Perigee altitude
35,866.927 km
Semi-major axis
42,536.589 km
Eccentricity
0.00685
Inclination
1.9372°
RAAN
83.492°
Arg. of periapsis
2.0512°
True anomaly
Unknown
Mean anomaly
357.3863°
Eccentric anomaly
Unknown
Mean motion
0.2474 °/min
Orbital period
1,455.14 mins
BSTAR
0
Loading historical data...
55842 neighbors
Loading maneuver chart data...
Loading SW <> Apogee altitude chart data...
Loading historical data...
Loading historical data...
Loading historical data...
Loading historical data...
Loading historical data...
Loading historical data...
Loading historical data...
Other satellites on launch #31 in the year 2023 (2023-03-12 UTC)

BREEZE-M R/B Visibility

Observer location: undefined°, undefined°

BREEZE-M R/B is likely not visible in the next few days
Span
Click to sort rows by Start time (UTC) header in descending order
Start Az.
Max El. time (UTC)
Max El. Az.
Max El.
End time (UTC)
End Az.
|